Weather in Listvyanka

Russia / Altai Krai     52°45′26″N   83°58′36″E
temp.,
°C
wind,
m/s
gust,
m/s
humid.,
%
clouds,
%
prec.,
mm/h
press.,
hPa
HPBL,
m
24 july, sat
sat2401:00+18wnw1399100 1.6 1004101
04:00+17sw119790 0.0 100416
07:00+18wnw2397100 0.1 100582
10:00+18sw2599100 1.9 1006192
13:00+23wsw346879 1.9 1006885
16:00+22wsw247186 0.0 1006433
19:00+24nnw127354 0.0 1006256
22:00+19ese11949 0.0 100611
25 july, sun
sun2501:00+17s22965 0.1 100720
04:00+16s119710 0.0 100611
07:00+18sse1194100 0.0 100737
10:00+24s12655 0.0 1007471
13:00+29wsw244417 0.0 10052068
16:00+30w443879 0.0 10042562
19:00+29w13501 0.0 1004185
22:00+22ese2264100 0.0 100427
26 july, mon
mon2601:00+20se247157 0.0 100371
04:00+19sse24815 0.0 100268
07:00+19s258097 0.0 1002108
10:00+25ssw345998 0.0 1002366
13:00+30sw563928 0.0 10011239
16:00+31w584145 0.0 10012321
19:00+26w584919 0.1 10031565
22:00+19wnw510680 0.0 1005791
27 july, tue
tue2701:00+16w397566 0.0 1007548
04:00+16w3885100 0.1 1007584
07:00+14nw3885100 0.2 1009592
10:00+18nw35495 0.0 10101076
13:00+21nw343654 0.0 10102324
16:00+21nw5439100 0.0 10091376
19:00+20nnw334515 0.0 1009845
22:00+15n006799 0.0 101011
28 july, wed
wed2801:00+15n006697 0.0 101011
04:00+12n11816 0.0 101012
07:00+12n238342 0.0 101192
10:00+19nne23539 0.0 1011772
13:00+19n1258100 0.6 1010945
16:00+22nne223955 0.0 10102111
19:00+20nw2245100 0.0 10091315
22:00+16nnw2456100 0.0 101096